period_start,C,m1,H,J0,J1,J2,J3,J4,J5,JA,JB,JC,JD,JJ,JK,JN,#
2015-06-19 00:19:34,0.00,0.00,0.00,17.53,17.78,16.87,4.15,21.98,1002.45,1871.48,3201.92,3051.79,3326.20,308.16,307.36,0.00,0000 0000 0000 0000 000000
2015-06-19 00:24:35,0.00,0.00,0.00,17.61,17.76,18.65,4.72,24.61,1002.93,2077.09,3551.08,3385.82,3690.49,350.38,349.68,0.03,0000 0000 0000 0000 000000
2015-06-19 00:29:37,0.00,0.00,0.00,17.78,17.75,19.52,4.60,24.60,1003.12,2077.00,3549.91,3384.99,3689.19,349.14,348.33,0.06,0000 0000 0000 0000 000000
2015-06-19 00:34:38,0.02,0.00,0.00,17.99,17.78,20.06,4.69,24.63,1003.41,2076.98,3549.06,3384.20,3688.45,349.60,348.69,0.09,0000 0000 0000 0000 000000
2015-06-19 00:39:39,0.03,0.00,0.00,18.26,17.84,20.43,4.71,24.68,1003.54,2076.88,3548.25,3383.71,3687.70,349.58,348.48,0.12,0000 0000 0000 0000 000000
2015-06-19 00:44:40,-0.01,0.00,0.00,18.51,17.94,20.84,4.73,24.77,1003.71,2076.24,3547.62,3382.97,3686.81,349.99,348.73,0.15,0000 0000 0000 0000 000000
2015-06-19 00:49:42,0.05,0.00,0.00,18.72,18.07,21.24,4.82,24.76,1003.89,2076.01,3546.63,3382.07,3685.82,350.39,348.69,0.18,0000 0000 0000 0000 000000
2015-06-19 00:54:43,0.01,0.00,0.00,19.07,18.24,21.68,4.70,24.93,1003.92,2075.74,3545.72,3381.07,3684.66,349.76,347.74,0.21,0000 0000 0000 0000 000000
2015-06-19 00:59:45,0.04,0.00,0.00,19.38,18.44,22.12,4.72,24.97,1004.06,2075.03,3544.68,3379.88,3683.35,350.28,347.76,0.24,0000 0000 0000 0000 000000
2015-06-19 01:04:46,-0.01,0.00,0.00,19.65,18.65,22.54,4.77,24.94,1004.40,2074.38,3543.51,3378.62,3681.77,350.24,347.56,0.26,0000 0000 0000 0000 000000
2015-06-19 01:09:48,0.03,0.01,0.00,19.96,18.89,22.94,4.69,24.90,1004.42,2073.77,3542.08,3377.23,3680.21,350.01,347.18,0.29,0000 0000 0000 0000 000000
2015-06-19 01:14:49,0.04,0.01,0.00,20.24,19.16,23.34,4.75,24.91,1004.64,2072.86,3540.55,3375.62,3678.33,350.24,346.96,0.32,0000 0000 0000 0000 000000
2015-06-19 01:19:51,0.00,0.01,0.00,20.55,19.43,23.74,4.72,24.86,1004.90,2072.03,3539.07,3374.09,3676.55,349.95,346.55,0.35,0000 0000 0000 0000 000000
2015-06-19 01:24:52,0.02,0.01,0.00,20.87,19.72,24.12,4.68,24.93,1004.96,2071.08,3537.36,3372.35,3674.55,349.54,345.83,0.38,0000 0000 0000 0000 000000
2015-06-19 01:29:53,0.01,0.01,0.00,21.14,20.02,24.49,4.74,24.86,1005.30,2070.07,3535.74,3370.59,3672.50,350.09,346.15,0.41,0000 0000 0000 0000 000000
2015-06-19 01:34:54,0.01,0.01,0.00,21.39,20.32,24.86,4.76,24.86,1005.40,2069.08,3534.00,3368.77,3670.39,350.00,345.62,0.44,0000 0000 0000 0000 000000
2015-06-19 01:39:55,0.02,0.01,0.00,21.61,20.63,25.23,4.73,24.81,1005.50,2067.98,3532.16,3366.81,3668.16,350.16,345.69,0.47,0000 0000 0000 0000 000000
2015-06-19 01:44:57,0.01,0.01,0.00,21.86,20.94,25.58,4.62,24.75,1005.82,2066.85,3530.14,3364.77,3665.85,349.35,344.74,0.50,0000 0000 0000 0000 000000
2015-06-19 01:49:58,-0.01,0.01,0.00,22.09,21.25,25.92,4.69,24.73,1005.87,2065.71,3528.22,3362.75,3663.55,349.74,344.86,0.53,0000 0000 0000 0000 000000
2015-06-19 01:55:00,0.01,0.01,0.00,22.30,21.57,26.25,4.71,24.76,1005.88,2064.57,3526.30,3360.65,3661.23,349.82,344.74,0.56,0000 0000 0000 0000 000000
2015-06-19 02:00:01,0.03,0.01,0.00,22.58,21.88,26.58,4.63,24.56,1006.00,2063.34,3524.23,3358.47,3658.75,349.67,344.32,0.59,0000 0000 0000 0000 000000
2015-06-19 02:05:02,0.03,0.01,0.00,22.83,22.19,26.89,4.71,24.65,1006.28,2062.18,3522.22,3356.40,3656.38,349.97,344.37,0.62,0000 0000 0000 0000 000000
2015-06-19 02:10:04,0.01,0.01,0.00,22.86,22.50,27.19,4.69,24.62,1006.36,2060.93,3520.11,3354.24,3653.91,350.05,344.36,0.65,0000 0000 0000 0000 000000
2015-06-19 02:15:05,-0.01,0.01,0.00,22.92,22.80,27.44,4.75,24.59,1006.37,2059.68,3518.13,3352.11,3651.49,349.97,344.31,0.67,0000 0000 0000 0000 000000
2015-06-19 02:20:07,0.00,0.01,0.00,23.04,23.09,27.64,4.66,24.48,1006.41,2058.56,3516.11,3350.11,3649.24,350.13,344.26,0.70,0000 0000 0000 0000 000000
2015-06-19 02:25:08,0.00,0.01,0.00,23.09,23.36,27.77,4.69,24.38,1006.73,2057.43,3514.30,3348.26,3647.21,349.99,344.30,0.73,0000 0000 0000 0000 000000
2015-06-19 02:30:09,0.01,0.01,0.00,23.09,23.62,27.79,4.67,24.41,1006.85,2056.45,3512.59,3346.50,3645.34,350.01,344.31,0.76,0000 0000 0000 0000 000000
2015-06-19 02:35:10,0.00,0.01,0.00,23.07,23.86,27.68,4.69,24.37,1006.85,2055.42,3510.83,3344.82,3643.42,350.03,344.12,0.79,0000 0000 0000 0000 000000
2015-06-19 02:40:11,0.01,0.01,0.00,23.07,24.08,27.67,4.71,24.27,1006.85,2054.54,3509.19,3343.20,3641.57,349.96,344.15,0.82,0000 0000 0000 0000 000000
2015-06-19 02:45:13,0.02,0.01,0.00,23.05,24.29,27.74,4.73,24.28,1006.85,2053.62,3507.66,3341.66,3639.80,349.89,344.00,0.85,0000 0000 0000 0000 000000
2015-06-19 02:50:14,0.02,0.01,0.00,23.06,24.49,27.83,4.66,24.28,1006.85,2052.77,3506.25,3340.17,3638.06,349.67,344.01,0.88,0000 0000 0000 0000 000000
2015-06-19 02:55:15,0.04,0.01,0.00,23.12,24.68,27.93,4.70,24.31,1006.86,2051.99,3504.78,3338.71,3636.54,349.74,343.61,0.91,0000 0000 0000 0000 000000
2015-06-19 03:00:17,-0.02,0.01,0.00,23.24,24.85,28.04,4.74,24.37,1006.87,2051.13,3503.55,3337.45,3634.97,350.30,344.30,0.94,0000 0000 0000 0000 000000
2015-06-19 03:05:17,-0.03,0.01,0.00,23.16,25.01,28.10,4.65,24.26,1006.88,2050.42,3502.23,3336.15,3633.48,349.77,343.88,0.97,0000 0000 0000 0000 000000
2015-06-19 03:10:19,0.02,0.01,0.00,23.11,25.16,28.16,4.69,24.22,1006.93,2049.72,3500.85,3334.82,3631.96,350.11,344.44,1.00,0000 0000 0000 0000 000000
2015-06-19 03:15:20,0.05,0.01,0.00,23.14,25.30,28.22,4.81,24.24,1006.94,2049.01,3499.65,3333.67,3630.66,350.32,344.66,1.03,0000 0000 0000 0000 000000
2015-06-19 03:20:21,-0.05,0.01,0.00,23.11,25.43,28.30,4.63,24.06,1007.18,2048.29,3498.59,3332.63,3629.47,349.76,343.97,1.06,0000 0000 0000 0000 000000
2015-06-19 03:25:22,0.03,0.01,0.00,23.07,25.55,28.36,4.81,24.11,1007.32,2047.81,3497.62,3331.70,3628.38,350.64,345.00,1.08,0000 0000 0000 0000 000000
2015-06-19 03:30:23,-0.02,0.01,0.00,23.06,25.66,28.41,4.69,23.99,1007.34,2047.06,3496.61,3330.75,3627.25,349.90,344.40,1.11,0000 0000 0000 0000 000000
2015-06-19 03:35:25,0.06,0.01,0.00,23.08,25.76,28.45,4.65,24.00,1007.34,2047.00,3495.82,3329.93,3626.24,350.34,344.71,1.14,0000 0000 0000 0000 000000
2015-06-19 03:40:26,-0.01,0.02,0.00,23.12,25.85,28.51,4.68,23.99,1007.34,2046.68,3495.00,3329.07,3625.37,349.83,344.41,1.17,0000 0000 0000 0000 000000
2015-06-19 03:45:27,0.02,0.02,0.00,23.15,25.93,28.56,4.69,24.06,1007.34,2046.04,3494.15,3328.31,3624.44,349.83,344.07,1.20,0000 0000 0000 0000 000000
2015-06-19 03:50:28,0.06,0.02,0.00,23.17,26.02,28.61,4.64,24.10,1007.34,2045.90,3493.25,3327.57,3623.55,349.82,344.11,1.23,0000 0000 0000 0000 000000
2015-06-19 03:55:30,-0.09,0.02,0.00,23.19,26.10,28.67,4.70,24.00,1007.34,2045.20,3492.71,3327.00,3622.83,349.86,344.45,1.26,0000 0000 0000 0000 000000
2015-06-19 04:00:31,0.06,0.02,0.00,23.22,26.17,28.73,4.76,23.97,1007.34,2044.99,3491.89,3326.21,3621.90,350.27,344.63,1.29,0000 0000 0000 0000 000000
2015-06-19 04:05:32,0.04,0.02,0.00,23.24,26.24,28.79,4.77,23.94,1007.35,2044.78,3490.86,3325.28,3620.83,349.90,344.16,1.32,0000 0000 0000 0000 000000
2015-06-19 04:10:33,-0.03,0.02,0.00,23.26,26.31,28.84,4.74,23.94,1007.35,2044.06,3489.93,3324.66,3619.91,350.22,344.47,1.35,0000 0000 0000 0000 000000
2015-06-19 04:15:35,0.07,0.02,0.00,23.28,26.38,28.90,4.76,23.91,1007.36,2044.00,3488.98,3323.80,3618.97,349.92,344.24,1.38,0000 0000 0000 0000 000000
2015-06-19 04:20:36,0.05,0.02,0.00,23.32,26.44,28.95,4.69,23.90,1007.35,2043.89,3488.08,3323.01,3618.08,349.77,343.75,1.41,0000 0000 0000 0000 000000
2015-06-19 04:25:37,-0.03,0.02,0.00,23.35,26.50,29.01,4.68,23.81,1007.47,2043.22,3487.16,3322.16,3617.21,349.34,343.47,1.44,0000 0000 0000 0000 000000
2015-06-19 04:30:39,0.07,0.02,0.00,23.37,26.55,29.06,4.75,23.86,1007.72,2043.01,3486.23,3321.51,3616.39,350.02,344.31,1.47,0000 0000 0000 0000 000000
2015-06-19 04:35:40,0.04,0.02,0.00,23.38,26.60,29.10,4.83,23.92,1007.81,2042.97,3485.70,3320.95,3615.64,350.43,344.73,1.49,0000 0000 0000 0000 000000
2015-06-19 04:40:41,-0.06,0.02,0.00,23.40,26.65,29.15,4.73,23.91,1007.83,2042.48,3485.01,3320.14,3614.99,350.36,344.62,1.52,0000 0000 0000 0000 000000
2015-06-19 04:45:42,0.01,0.02,0.00,23.43,26.70,29.20,4.73,23.86,1007.83,2042.07,3484.36,3319.96,3614.33,350.10,344.31,1.55,0000 0000 0000 0000 000000
2015-06-19 04:50:43,0.03,0.02,0.00,23.47,26.75,29.24,4.62,23.74,1007.83,2042.00,3483.93,3319.25,3613.94,349.43,343.57,1.58,0000 0000 0000 0000 000000
2015-06-19 04:55:44,0.05,0.02,0.00,23.49,26.79,29.28,4.76,23.88,1007.83,2041.99,3483.17,3318.93,3613.15,349.87,344.08,1.61,0000 0000 0000 0000 000000
2015-06-19 05:00:46,0.03,0.03,0.00,23.52,26.83,29.32,4.61,23.89,1007.83,2041.95,3482.87,3318.24,3612.86,349.99,344.20,1.64,0000 0000 0000 0000 000000
2015-06-19 05:05:47,-0.05,0.03,0.00,23.54,26.87,29.36,4.74,23.93,1007.83,2041.52,3482.12,3317.99,3612.08,350.08,344.14,1.67,0000 0000 0000 0000 000000
2015-06-19 05:10:48,-0.02,0.02,0.00,23.57,26.91,29.39,4.79,23.93,1007.83,2041.06,3481.98,3317.77,3611.96,350.27,344.29,1.70,0000 0000 0000 0000 000000
2015-06-19 05:15:49,0.06,0.03,0.00,23.60,26.95,29.42,4.73,23.94,1007.83,2041.00,3481.23,3317.06,3611.16,349.81,343.94,1.73,0000 0000 0000 0000 000000
2015-06-19 05:20:50,0.00,0.03,0.00,23.62,26.98,29.45,4.68,23.85,1007.84,2041.00,3481.01,3317.00,3610.99,349.76,343.49,1.76,0000 0000 0000 0000 000000
2015-06-19 05:25:51,0.04,0.03,0.00,23.64,27.01,29.48,4.77,23.90,1007.84,2040.98,3480.86,3316.63,3610.46,350.05,344.01,1.79,0000 0000 0000 0000 000000
2015-06-19 05:30:53,-0.00,0.03,0.00,23.65,27.05,29.52,4.65,23.81,1007.84,2040.75,3480.07,3316.04,3610.00,349.66,343.66,1.82,0000 0000 0000 0000 000000
2015-06-19 05:35:54,-0.07,0.02,0.00,23.68,27.08,29.54,4.69,23.88,1007.84,2040.16,3479.99,3315.98,3609.78,350.36,344.28,1.85,0000 0000 0000 0000 000000
2015-06-19 05:40:55,0.04,0.03,0.00,23.70,27.11,29.56,4.73,23.88,1007.85,2040.03,3479.62,3315.56,3609.11,350.03,344.11,1.88,0000 0000 0000 0000 000000
2015-06-19 05:45:57,0.01,0.03,0.00,23.72,27.14,29.60,4.70,23.82,1007.85,2040.01,3479.02,3315.04,3609.00,350.28,344.28,1.90,0000 0000 0000 0000 000000
2015-06-19 05:50:58,0.00,0.03,0.00,23.74,27.16,29.62,4.71,23.74,1007.84,2040.00,3478.98,3315.00,3608.78,349.79,343.59,1.93,0000 0000 0000 0000 000000
2015-06-19 05:56:00,0.04,0.03,0.00,23.75,27.19,29.65,4.69,23.82,1007.84,2040.00,3478.34,3314.88,3608.06,350.14,344.05,1.96,0000 0000 0000 0000 000000
2015-06-19 06:01:01,0.03,0.03,0.00,23.76,27.21,29.67,4.79,23.84,1007.86,2039.99,3478.02,3314.18,3607.99,350.27,344.01,1.99,0000 0000 0000 0000 000000
2015-06-19 06:06:02,0.01,0.03,0.00,23.79,27.24,29.68,4.70,23.79,1007.96,2039.97,3477.99,3314.00,3607.63,350.09,343.90,2.02,0000 0000 0000 0000 000000
2015-06-19 06:11:03,-0.02,0.03,0.00,23.81,27.26,29.70,4.73,23.85,1008.20,2039.80,3477.69,3313.98,3607.03,350.09,343.78,2.05,0000 0000 0000 0000 000000
2015-06-19 06:16:04,-0.04,0.03,0.00,23.82,27.28,29.73,4.66,23.73,1008.31,2039.35,3477.07,3313.66,3606.99,349.72,343.65,2.08,0000 0000 0000 0000 000000
2015-06-19 06:21:05,-0.00,0.03,0.00,23.84,27.31,29.75,4.74,23.75,1008.31,2039.10,3477.00,3313.15,3606.93,350.04,343.78,2.11,0000 0000 0000 0000 000000
2015-06-19 06:26:07,0.01,0.03,0.00,23.85,27.32,29.76,4.68,23.73,1008.31,2039.11,3477.00,3313.05,3606.44,349.80,343.71,2.14,0000 0000 0000 0000 000000
2015-06-19 06:31:08,0.01,0.03,0.00,23.85,27.35,29.78,4.66,23.77,1008.31,2039.01,3476.79,3312.99,3606.03,350.08,344.09,2.17,0000 0000 0000 0000 000000
2015-06-19 06:36:09,0.01,0.03,0.00,23.87,27.36,29.80,4.81,23.73,1008.31,2039.00,3476.13,3312.97,3605.99,350.57,344.46,2.20,0000 0000 0000 0000 000000
2015-06-19 06:41:11,0.03,0.03,0.00,23.90,27.38,29.82,4.63,23.68,1008.31,2039.00,3476.00,3312.65,3605.77,350.00,343.86,2.23,0000 0000 0000 0000 000000
2015-06-19 06:46:12,0.03,0.03,0.00,23.93,27.40,29.84,4.69,23.63,1008.31,2038.99,3475.96,3312.05,3605.11,350.02,343.86,2.26,0000 0000 0000 0000 000000
2015-06-19 06:51:13,0.01,0.03,0.00,23.95,27.42,29.84,4.76,23.69,1008.31,2038.98,3475.74,3312.00,3605.00,350.48,344.21,2.29,0000 0000 0000 0000 000000
2015-06-19 06:56:14,0.01,0.03,0.00,23.95,27.44,29.86,4.63,23.63,1008.31,2038.96,3475.13,3312.00,3604.99,349.91,343.55,2.31,0000 0000 0000 0000 000000
2015-06-19 07:01:15,0.01,0.03,0.00,23.97,27.45,29.88,4.72,23.66,1008.32,2038.94,3475.00,3311.98,3604.78,350.13,343.84,2.34,0000 0000 0000 0000 000000
2015-06-19 07:06:17,-0.01,0.03,0.00,23.99,27.47,29.90,4.70,23.51,1008.34,2038.74,3474.99,3311.71,3604.17,350.54,344.20,2.37,0000 0000 0000 0000 000000
2015-06-19 07:11:18,-0.03,0.03,0.00,24.01,27.49,29.90,4.66,23.68,1008.34,2038.30,3474.66,3311.08,3604.01,349.76,343.35,2.40,0000 0000 0000 0000 000000
2015-06-19 07:16:19,-0.01,0.03,0.00,24.05,27.50,29.92,4.67,23.74,1008.33,2038.05,3474.04,3310.99,3603.97,349.35,343.19,2.43,0000 0000 0000 0000 000000
2015-06-19 07:21:21,0.01,0.03,0.00,24.07,27.52,29.93,4.68,23.77,1008.39,2038.02,3474.00,3310.98,3603.73,350.26,343.97,2.46,0000 0000 0000 0000 000000
2015-06-19 07:26:22,0.01,0.03,0.00,24.09,27.53,29.95,4.80,23.76,1008.51,2038.03,3473.99,3310.96,3603.41,350.30,343.94,2.49,0000 0000 0000 0000 000000
2015-06-19 07:31:23,0.01,0.03,0.00,24.11,27.55,29.96,4.70,23.65,1008.71,2038.02,3473.97,3310.72,3603.04,349.82,343.68,2.52,0000 0000 0000 0000 000000
2015-06-19 07:36:25,0.04,0.03,0.00,24.12,27.56,29.97,4.78,23.63,1008.71,2038.01,3473.46,3310.13,3603.00,350.52,344.06,2.55,0000 0000 0000 0000 000000
2015-06-19 07:41:26,0.00,0.03,0.00,24.13,27.57,29.98,4.70,23.62,1008.80,2038.00,3473.09,3310.02,3602.99,349.91,343.60,2.58,0000 0000 0000 0000 000000
2015-06-19 07:46:27,0.00,0.03,0.00,24.15,27.60,30.01,4.73,23.63,1008.80,2038.00,3473.00,3310.00,3602.93,349.83,343.56,2.61,0000 0000 0000 0000 000000
2015-06-19 07:51:28,0.01,0.03,0.00,24.18,27.60,30.01,4.71,23.65,1008.81,2038.00,3473.00,3310.00,3602.59,350.18,343.82,2.64,0000 0000 0000 0000 000000
2015-06-19 07:56:29,0.01,0.03,0.00,24.20,27.62,30.02,4.74,23.66,1008.82,2038.00,3472.94,3309.96,3602.07,350.44,343.91,2.67,0000 0000 0000 0000 000000
2015-06-19 08:01:31,0.03,0.03,0.00,24.22,27.63,30.03,4.68,23.59,1008.84,2037.98,3472.49,3309.60,3602.00,349.79,343.36,2.70,0000 0000 0000 0000 000000
2015-06-19 08:06:32,0.02,0.03,0.00,24.22,27.65,30.05,4.59,23.67,1009.00,2037.95,3472.04,3309.09,3601.99,349.61,343.34,2.72,0000 0000 0000 0000 000000
2015-06-19 08:11:33,-0.00,0.04,0.00,24.26,27.66,30.06,4.73,23.68,1009.20,2037.91,3472.00,3309.02,3601.90,350.67,344.36,2.75,0000 0000 0000 0000 000000
2015-06-19 08:16:34,-0.02,0.03,0.00,24.27,27.67,30.05,4.67,23.67,1009.25,2037.63,3471.99,3309.00,3601.16,349.58,343.37,2.78,0000 0000 0000 0000 000000
2015-06-19 08:21:36,-0.00,0.03,0.00,24.27,27.69,30.08,4.77,23.68,1009.28,2037.71,3471.98,3309.00,3601.04,350.27,343.86,2.81,0000 0000 0000 0000 000000
2015-06-19 08:26:37,-0.03,0.03,0.00,24.28,27.70,30.09,4.67,23.70,1009.29,2037.54,3471.91,3308.99,3601.00,349.99,343.96,2.84,0000 0000 0000 0000 000000
2015-06-19 08:31:38,0.01,0.03,0.00,24.30,27.71,30.11,4.67,23.63,1009.29,2037.31,3471.68,3308.97,3601.00,349.71,343.25,2.87,0000 0000 0000 0000 000000
2015-06-19 08:36:40,0.00,0.03,0.00,24.31,27.72,30.12,4.68,23.52,1009.29,2037.21,3471.16,3308.66,3600.99,349.82,343.16,2.90,0000 0000 0000 0000 000000
2015-06-19 08:41:41,0.00,0.03,0.00,24.33,27.73,30.13,4.77,23.66,1009.30,2037.07,3471.01,3308.21,3600.91,350.29,343.87,2.93,0000 0000 0000 0000 000000
2015-06-19 08:46:41,0.02,0.03,0.00,24.34,27.75,30.13,4.73,23.73,1009.31,2037.03,3470.99,3308.02,3600.18,350.16,343.87,2.96,0000 0000 0000 0000 000000
2015-06-19 08:51:43,0.00,0.03,0.00,24.35,27.75,30.15,4.74,23.62,1009.36,2037.00,3470.97,3308.00,3600.01,350.45,344.19,2.99,0000 0000 0000 0000 000000
2015-06-19 08:56:44,0.01,0.03,0.00,24.35,27.77,30.16,4.62,23.59,1009.63,2037.00,3470.61,3307.98,3600.00,349.81,343.58,3.02,0000 0000 0000 0000 000000
2015-06-19 09:01:45,0.01,0.03,0.00,24.36,27.77,30.17,4.72,23.57,1009.75,2037.00,3470.17,3307.98,3600.00,350.33,344.25,3.05,0000 0000 0000 0000 000000
2015-06-19 09:06:46,0.00,0.04,0.00,24.37,27.80,30.18,4.61,23.62,1009.78,2037.00,3470.05,3307.95,3599.96,349.59,343.39,3.08,0000 0000 0000 0000 000000
2015-06-19 09:11:48,0.02,0.04,0.00,24.37,27.80,30.19,4.65,23.62,1009.78,2037.00,3470.03,3307.81,3599.81,350.06,343.52,3.11,0000 0000 0000 0000 000000
2015-06-19 09:16:49,0.04,0.04,0.00,24.38,27.81,30.19,4.69,23.63,1009.78,2036.99,3470.00,3307.19,3599.14,349.89,343.73,3.13,0000 0000 0000 0000 000000
2015-06-19 09:21:50,0.00,0.04,0.00,24.41,27.82,30.20,4.70,23.48,1009.78,2036.98,3469.99,3307.05,3599.05,350.05,343.76,3.16,0000 0000 0000 0000 000000
2015-06-19 09:26:51,-0.00,0.04,0.00,24.42,27.82,30.20,4.69,23.47,1009.78,2036.98,3469.98,3307.05,3599.02,349.82,343.57,3.19,0000 0000 0000 0000 000000
2015-06-19 09:31:52,0.00,0.04,0.00,24.43,27.85,30.23,4.74,23.45,1009.79,2036.97,3469.96,3307.02,3599.00,350.42,344.05,3.22,0000 0000 0000 0000 000000
2015-06-19 09:36:54,-0.00,0.04,0.00,24.42,27.85,30.24,4.63,23.49,1009.80,2036.98,3469.91,3307.01,3599.00,349.55,343.44,3.25,0000 0000 0000 0000 000000
2015-06-19 09:41:55,0.01,0.04,0.00,24.42,27.85,30.25,4.74,23.61,1009.98,2036.97,3469.69,3307.00,3599.00,350.29,343.90,3.28,0000 0000 0000 0000 000000
2015-06-19 09:46:57,0.01,0.04,0.00,24.43,27.87,30.26,4.67,23.46,1010.20,2036.96,3469.38,3307.00,3598.99,349.95,343.68,3.31,0000 0000 0000 0000 000000
2015-06-19 09:51:58,0.00,0.04,0.00,24.44,27.87,30.25,4.71,23.55,1010.24,2036.93,3469.05,3306.99,3598.94,349.91,343.62,3.34,0000 0000 0000 0000 000000
2015-06-19 09:57:00,-0.02,0.04,0.00,24.45,27.88,30.26,4.75,23.59,1010.26,2036.64,3469.00,3306.95,3598.48,350.23,343.76,3.37,0000 0000 0000 0000 000000
2015-06-19 10:02:01,0.02,0.04,0.00,24.45,27.90,30.27,4.67,23.45,1010.27,2036.71,3469.00,3306.84,3598.16,349.97,343.76,3.40,0000 0000 0000 0000 000000
2015-06-19 10:07:02,-0.01,0.04,0.00,24.46,27.90,30.29,4.71,23.47,1010.27,2036.57,3468.98,3306.46,3598.03,350.19,343.94,3.43,0000 0000 0000 0000 000000
2015-06-19 10:12:04,0.00,0.04,0.00,24.47,27.90,30.29,4.74,23.57,1010.27,2036.46,3468.95,3306.22,3598.01,350.14,343.95,3.46,0000 0000 0000 0000 000000
2015-06-19 10:17:05,-0.03,0.04,0.00,24.49,27.92,30.31,4.69,23.47,1010.28,2036.11,3468.25,3306.02,3597.99,350.46,344.25,3.49,0000 0000 0000 0000 000000
2015-06-19 10:22:06,-0.00,0.04,0.00,24.50,27.92,30.32,4.66,23.51,1010.30,2036.06,3468.12,3306.01,3597.98,349.61,343.47,3.52,0000 0000 0000 0000 000000
2015-06-19 10:27:07,0.01,0.04,0.00,24.50,27.92,30.31,4.76,23.63,1010.32,2036.08,3468.07,3306.00,3597.99,350.51,344.36,3.54,0000 0000 0000 0000 000000
2015-06-19 10:32:09,-0.00,0.04,0.00,24.50,27.94,30.33,4.78,23.57,1010.41,2036.06,3468.03,3306.00,3597.95,350.67,343.95,3.57,0000 0000 0000 0000 000000
2015-06-19 10:37:10,0.01,0.04,0.00,24.51,27.95,30.33,4.65,23.50,1010.45,2036.08,3468.01,3306.00,3597.95,349.74,343.80,3.60,0000 0000 0000 0000 000000
2015-06-19 10:42:11,-0.01,0.04,0.00,24.51,27.95,30.33,4.73,23.47,1010.46,2036.09,3468.00,3306.00,3597.84,350.03,343.84,3.63,0000 0000 0000 0000 000000
2015-06-19 10:47:13,0.01,0.04,0.00,24.52,27.96,30.34,4.65,23.52,1010.66,2036.03,3467.99,3305.98,3597.20,349.73,343.62,3.66,0000 0000 0000 0000 000000
2015-06-19 10:52:14,0.00,0.04,0.00,24.52,27.97,30.34,4.71,23.46,1010.72,2036.02,3467.97,3305.95,3597.03,349.95,343.99,3.69,0000 0000 0000 0000 000000
2015-06-19 10:57:15,0.01,0.04,0.00,24.52,27.97,30.37,4.69,23.45,1010.76,2036.01,3467.93,3305.74,3597.00,349.97,344.01,3.72,0000 0000 0000 0000 000000
2015-06-19 11:02:16,0.02,0.04,0.00,24.52,27.98,30.38,4.68,23.41,1010.76,2036.01,3467.68,3305.51,3597.00,350.08,343.99,3.75,0000 0000 0000 0000 000000
2015-06-19 11:07:18,0.02,0.04,0.00,24.52,27.99,30.38,4.69,23.38,1010.76,2036.00,3467.11,3305.08,3596.99,349.82,343.70,3.78,0000 0000 0000 0000 000000
2015-06-19 11:12:19,-0.00,0.04,0.00,24.52,28.00,30.38,4.75,23.50,1010.76,2036.00,3467.01,3305.04,3596.97,350.17,344.24,3.81,0000 0000 0000 0000 000000
2015-06-19 11:17:20,0.00,0.04,0.00,24.52,28.00,30.40,4.75,23.49,1010.76,2036.00,3467.00,3305.01,3596.96,349.78,343.63,3.84,0000 0000 0000 0000 000000
2015-06-19 11:22:21,0.00,0.04,0.00,24.52,28.00,30.41,4.69,23.39,1010.76,2036.00,3467.00,3305.00,3596.80,350.18,343.92,3.87,0000 0000 0000 0000 000000
2015-06-19 11:27:23,0.00,0.04,0.00,24.52,28.01,30.40,4.77,23.42,1010.77,2036.00,3467.00,3305.00,3596.62,350.66,344.57,3.90,0000 0000 0000 0000 000000
2015-06-19 11:32:24,0.01,0.04,0.00,24.53,28.02,30.42,4.67,23.32,1010.77,2036.00,3466.98,3305.00,3596.29,350.07,343.97,3.93,0000 0000 0000 0000 000000
2015-06-19 11:37:26,0.00,0.04,0.00,24.55,28.02,30.41,4.72,23.42,1010.77,2036.00,3466.95,3304.99,3596.06,349.94,343.81,3.96,0000 0000 0000 0000 000000
2015-06-19 11:42:27,-0.00,0.04,0.00,24.55,28.02,30.42,4.67,23.40,1010.78,2036.00,3466.90,3304.97,3596.01,349.93,343.83,3.98,0000 0000 0000 0000 000000
2015-06-19 11:47:28,0.01,0.04,0.00,24.54,28.03,30.43,4.68,23.49,1010.78,2036.00,3466.53,3304.96,3596.00,349.84,343.85,4.01,0000 0000 0000 0000 000000
2015-06-19 11:52:29,0.02,0.04,0.00,24.55,28.04,30.43,4.68,23.46,1010.82,2036.00,3466.11,3304.84,3596.00,349.98,343.71,4.04,0000 0000 0000 0000 000000
2015-06-19 11:57:31,0.01,0.04,0.00,24.55,28.05,30.45,4.70,23.45,1011.12,2036.00,3466.03,3304.75,3595.99,349.49,343.47,4.07,0000 0000 0000 0000 000000
2015-06-19 12:02:32,0.02,0.04,0.00,24.55,28.05,30.46,4.68,23.41,1011.24,2036.00,3466.00,3304.28,3595.95,350.20,344.25,4.10,0000 0000 0000 0000 000000
2015-06-19 12:07:33,0.01,0.04,0.00,24.55,28.05,30.43,4.69,23.44,1011.24,2036.00,3466.00,3304.07,3595.81,350.11,344.15,4.13,0000 0000 0000 0000 000000
2015-06-19 12:12:34,0.01,0.04,0.00,24.54,28.06,30.46,4.73,23.47,1011.24,2036.00,3465.99,3304.01,3595.43,349.99,343.84,4.16,0000 0000 0000 0000 000000
2015-06-19 12:17:36,0.00,0.04,0.00,24.54,28.07,30.46,4.66,23.42,1011.24,2035.98,3465.89,3304.00,3595.05,349.54,343.50,4.19,0000 0000 0000 0000 000000
2015-06-19 12:22:37,0.01,0.04,0.00,24.54,28.07,30.48,4.64,23.43,1011.25,2035.98,3465.80,3304.00,3595.02,350.07,344.13,4.22,0000 0000 0000 0000 000000
2015-06-19 12:27:38,0.01,0.04,0.00,24.54,28.07,30.48,4.72,23.40,1011.26,2035.98,3465.35,3304.00,3595.00,349.98,343.96,4.25,0000 0000 0000 0000 000000
2015-06-19 12:32:39,0.00,0.04,0.00,24.53,28.07,30.49,4.71,23.44,1011.26,2035.97,3465.20,3303.99,3595.00,350.36,344.45,4.28,0000 0000 0000 0000 000000
2015-06-19 12:37:40,-0.00,0.04,0.00,24.54,28.07,30.51,4.72,23.40,1011.29,2035.95,3465.05,3303.98,3595.00,349.98,344.17,4.31,0000 0000 0000 0000 000000
2015-06-19 12:42:41,0.00,0.04,0.00,24.55,28.08,30.52,4.68,23.41,1011.26,2035.98,3465.00,3303.98,3594.99,349.84,344.03,4.34,0000 0000 0000 0000 000000
2015-06-19 12:47:43,0.00,0.04,0.00,24.55,28.09,30.51,4.66,23.41,1011.35,2035.98,3465.00,3303.97,3594.98,349.52,343.61,4.36,0000 0000 0000 0000 000000
2015-06-19 12:52:44,0.00,0.04,0.00,24.54,28.10,30.53,4.73,23.41,1011.53,2035.98,3465.00,3303.95,3594.96,350.19,344.29,4.39,0000 0000 0000 0000 000000
2015-06-19 12:57:44,0.00,0.04,0.00,24.54,28.10,30.52,4.65,23.41,1011.68,2035.97,3465.00,3303.84,3594.84,349.97,344.19,4.42,0000 0000 0000 0000 000000
2015-06-19 13:02:46,0.03,0.04,0.00,24.55,28.10,30.52,4.67,23.39,1011.66,2035.97,3464.98,3303.55,3594.41,349.47,343.88,4.45,0000 0000 0000 0000 000000
2015-06-19 13:07:47,-0.00,0.04,0.00,24.54,28.10,30.52,4.65,23.42,1011.54,2035.95,3464.98,3303.44,3594.23,349.58,343.66,4.48,0000 0000 0000 0000 000000
2015-06-19 13:12:48,0.02,0.04,0.00,24.53,28.10,30.54,4.72,23.43,1011.45,2035.97,3464.89,3303.32,3594.16,349.95,344.09,4.51,0000 0000 0000 0000 000000
2015-06-19 13:17:49,0.01,0.04,0.00,24.55,28.10,30.53,4.67,23.46,1011.57,2035.93,3464.39,3303.06,3594.01,349.74,343.88,4.54,0000 0000 0000 0000 000000
2015-06-19 13:22:51,-0.01,0.04,0.00,24.55,28.10,30.56,4.66,23.40,1011.42,2035.91,3464.31,3303.02,3594.00,350.04,344.21,4.57,0000 0000 0000 0000 000000